Regional Weather Roundup
Issued by NWS Sterling, VA

Home | Current Version | Previous Version | Text Only | Print | Product List | Glossary On
Versions: 1 2 3 4 5 6 7 8 9 10 11 12 13 14 15 16 17 18 19 20 21 22 23 24 25 26 27 28 29 30 31 32 33 34 35 36 37 38 39 40 41 42 43 44 45 46 47 48 49 50
000
ASUS41 KLWX 021010
RWRLWX

REGIONAL WEATHER ROUNDUP
NATIONAL WEATHER SERVICE BALTIMORE MD/WASHINGTON DC
600 AM EDT SUN AUG 02 2015

Note: "FAIR" indicates few or no clouds below 12,000 feet
with no significant weather and/or obstructions to visibility.
 TC=TEMPERATURE CELSIUS

 * =Non NWS site. Station does not report precipitation (e.g. rain,
    snow, etc.), thunder, or fog.

DCZ001-MDZ009-015-VAZ040>042-051-053>054-021100-
WASHINGTON METRO

CITY           SKY/WX    TMP DP  RH WIND       PRES   REMARKS
WASHINGTON NAT PTCLDY    74  60  61 N6        29.93R
DULLES         PTCLDY    61  58  90 CALM      29.93R
ANDREWS AFB    PTCLDY    66  59  78 CALM      29.92R
FT BELVOIR     CLEAR     64  62  93 CALM      29.92
LEESBURG*      CLEAR     63  61  94 CALM      29.95R
MANASSAS*      PTCLDY    63  61  94 CALM      29.94R
GAITHERSBURG*  PTCLDY    63  57  82 CALM      29.98R

$$

MDZ006>007-011-014-021100-
BALTIMORE METRO

CITY           SKY/WX    TMP DP  RH WIND       PRES   REMARKS
BWI AIRPORT    PTCLDY    66  60  81 CALM      29.91S
MD SCIENCE CTR   N/A     74  58  57 MISG      29.92R
MARTIN STATE   PTCLDY    68  64  88 W5        29.92R
ANNAPOLIS      MOCLDY    70  64  81 W3        29.90R
FORT MEADE*    PTCLDY    61  59  94 CALM      29.94R

$$

MDZ012-015-019>023-021100-
MARYLAND EASTERN SHORE

CITY           SKY/WX    TMP DP  RH WIND       PRES   REMARKS
OCEAN CITY     CLEAR     66  63  90 CALM      29.89R
SALISBURY      CLEAR     68  66  93 CALM      29.89R
BAY BRIDGE AP*   N/A     73  64  73 CALM      29.91R
CAMBRIDGE*     CLEAR     70  64  83 CALM      29.89S
EASTON*        PTCLDY    68  68 100 CALM      29.94R

$$

MDZ017>025-021100-
SOUTHERN MARYLAND

CITY           SKY/WX    TMP DP  RH WIND       PRES   REMARKS
PATUXENT RIVER MOCLDY    74  63  68 NW6       29.91R
ST INIGOES     PTCLDY    70  63  78 CALM      29.90R
LEONARDTOWN*   CLEAR     64  61  88 CALM      29.93R

$$

MDZ003>005-021100-
NORTH CENTRAL MARYLAND

CITY           SKY/WX    TMP DP  RH WIND       PRES   REMARKS
FREDERICK*     CLEAR     61  61 100 CALM      29.96S
HAGERSTOWN APT CLEAR     65  57  75 S6        29.95R
WESTMINSTER*   PTCLDY    64  57  77 CALM      29.94S

$$

MDZ501>502-021100-
WESTERN MARYLAND

CITY           SKY/WX    TMP DP  RH WIND       PRES   REMARKS
OAKLAND*       CLEAR     59 N/A N/A W6        30.04S
CUMBERLAND*    CLEAR     59  59 100 CALM      30.01R

$$

VAZ025>031-021100-
SHENANDOAH VALLEY

CITY           SKY/WX    TMP DP  RH WIND       PRES   REMARKS
WINCHESTER*    CLEAR     64  55  72 CALM      29.96R
FRONT ROYAL*   FAIR      61  55  82 S5        29.95S
LURAY*         FAIR      61  61 100 CALM      29.98S
NEW MARKET*    FAIR      55  55  98 CALM      29.98S
STAUNTON*      PTCLDY    57  54  92 CALM      30.03R
WAYNESBORO*    FAIR      56  54  91 CALM      30.01R

$$

WVZ021-048>050-054>055-021100-
EASTERN WEST VIRGINIA PANHANDLE

CITY           SKY/WX    TMP DP  RH WIND       PRES   REMARKS
MARTINSBURG    CLEAR     61  55  81 CALM      29.95S
PETERSBURG*    CLEAR    N/A N/A N/A CALM      30.01R

$$

VAZ036>039-050-021100-
CENTRAL FOOTHILLS

CITY           SKY/WX    TMP DP  RH WIND       PRES   REMARKS
CHARLOTTESVILL PTCLDY    64  58  80 W7        29.96R
CULPEPER*      CLEAR     61  60  99 CALM      29.95R
ORANGE*        CLEAR     61  59  94 CALM      29.96S
GORDONSVILLE*  FAIR      59  57  94 CALM      29.95R
WARRENTON*     MOCLDY    60  60 100 CALM      29.93S FOG

$$

VAZ055>057-021100-
NORTH AND CENTRAL PIEDMONT

CITY           SKY/WX    TMP DP  RH WIND       PRES   REMARKS
FREDERICKSBRG* PTCLDY    67  62  81 CALM      29.92R
STAFFORD*      CLEAR     60  58  94 W3        29.97R

$$

NCZ024-NYZ072-PAZ021-071-VAZ022-071-021100-
OTHER REGIONAL OBSERVATIONS

CITY           SKY/WX    TMP DP  RH WIND       PRES   REMARKS
NEW YORK CITY  CLEAR     71  56  58 CALM      29.92R
PHILADELPHIA   PTCLDY    71  57  61 CALM      29.91R
PITTSBURGH     PTCLDY    64  56  75 W7        29.95S
ROANOKE        PTCLDY    60  56  86 W3        30.03R
RICHMOND       PTCLDY    70  60  70 N5        29.92R
RALEIGH        PTCLDY    67  60  78 E3        29.94R

$$

ANZ530>537-021100-
MARINE OBSERVATIONS

STATION/POSITION TIME  TEMP    WIND        PRES
                       AIR SEA DIR/SP/G
                 (UTC) (F)     (DEG/KT/KT) (MB)
THOMAS PT LIGHT  NOT AVBL
BALT KEY BRIDGE  0900   75     270/  5/  6 1012.4S
COVE POINT       0900   78     360/ 11/ 13 1012.7F
LEWISETTA        0900   79 84  360/  7/ 10 1011.7S
SOLOMONS ISLAND  0900      83                N/A
PINEY POINT      0900           10/  8/  9   N/A

$$



USA.gov is the U.S. government's official web portal to all federal, state and local government web resources and services.